Location: Bern/Schweiz
(46.9381°N, 7.4364°E)
Time: 01:49:24
(UTC+01:00)

ISS - Pass Details

Date: 24 September 2020
Orbit: 417 x 420 km, 51.6° (Epoch: 27 October)

Event Time Altitude Azimuth Distance (km) Brightness Sun altitude
Rises 20:11:04 0° 261° (W) 2,363 1.7 -9.0°
Reaches altitude 10° 20:13:12 10° 266° (W) 1,501 0.6 -9.3°
Maximum altitude 20:16:30 50° 343° (NNW) 545 -3.0 -9.9°
Enters shadow 20:19:48 10° 61° (ENE) 1,505 -1.4 -10.4°
